This is the latest recevied weather packets stored in our database for station/object N8TWM-13. If no packets are shown the sender has not sent any weather packets the latest 10 day(s).
| Time | Temp. | Humidity | Pressure | Rain* | Wind** | Luminosity | Snow |
|---|---|---|---|---|---|---|---|
| 1777400132 | 20.56° C | 71% | 1012.9 hPa | 0 mm | - | 784 W/m² | - |
| 1777399830 | 20° C | 72% | 1012.8 hPa | 0 mm | - | 517 W/m² | - |
| 1777399527 | 20.56° C | 72% | 1012.9 hPa | 0 mm | - | 171 W/m² | - |
| 1777399224 | 20.56° C | 73% | 1012.9 hPa | 0 mm | - | 783 W/m² | - |
| 1777398921 | 20.56° C | 72% | 1013.1 hPa | 0 mm | - | 822 W/m² | - |
| 1777398618 | 20.56° C | 71% | 1013 hPa | 0 mm | - | 484 W/m² | - |
| 1777398315 | 20.56° C | 73% | 1012.6 hPa | 0 mm | - | 780 W/m² | - |
| 1777398012 | 20° C | 75% | 1013 hPa | 0 mm | - | 207 W/m² | - |
| 1777397708 | 20° C | 75% | 1012.8 hPa | 0 mm | - | 248 W/m² | - |
| 1777397404 | 20° C | 75% | 1012.7 hPa | 0 mm | - | 260 W/m² | - |
| 1777397101 | 21.11° C | 73% | 1012.8 hPa | 0 mm | - | 336 W/m² | - |
| 1777396797 | 20.56° C | 75% | 1012.8 hPa | 0 mm | - | 276 W/m² | - |
| 1777396494 | 19.44° C | 76% | 1012.6 hPa | 0 mm | - | 158 W/m² | - |
| 1777396191 | 20° C | 74% | 1012.7 hPa | 0 mm | - | 138 W/m² | - |
| 1777395887 | 20.56° C | 74% | 1012.7 hPa | 0 mm | - | 243 W/m² | - |
| 1777395582 | 20.56° C | 74% | 1012.5 hPa | 0 mm | - | 809 W/m² | - |
| 1777395279 | 20.56° C | 74% | 1012.5 hPa | 0 mm | - | 750 W/m² | - |
| 1777394977 | 19.44° C | 77% | 1012.5 hPa | 0 mm | - | 295 W/m² | - |
| 1777394673 | 19.44° C | 76% | 1012.6 hPa | 0 mm | - | 216 W/m² | - |
| 1777394369 | 20.56° C | 75% | 1012 hPa | 0 mm | - | 424 W/m² | - |
| 1777394066 | 20° C | 75% | 1012.3 hPa | 0 mm | - | 254 W/m² | - |
| 1777393761 | 20° C | 75% | 1012.5 hPa | 0 mm | - | 399 W/m² | - |
| 1777393461 | 19.44° C | 78% | 1012.4 hPa | 0 mm | - | 805 W/m² | - |
| 1777393157 | 19.44° C | 78% | 1012.7 hPa | 0 mm | - | 862 W/m² | - |
| 1777392854 | 18.89° C | 80% | 1012.5 hPa | 0 mm | - | 655 W/m² | - |
* Rain latest hour (hover to see other rain measurements)
** Current wind speed in m/s (hover to see current wind gust speed)